N8MS Weather Reports


Display with metric or nautical units.
time (UTC)temp
F
wind
direction
speed
MPH
gust
MPH
rain 1hr
in
rain 24hr
in
rain mn
in
humidity
%
barometer
mb
20260506085917 41 16 0.0 0.0 0.00 0.09 0.00 78 1011.1
20260506085808 41 16 0.0 0.0 0.00 0.09 0.00 78 1011.1
20260506085659 41 16 0.0 0.0 0.00 0.09 0.00 78 1011.2
20260506085609 41 16 0.0 0.0 0.00 0.09 0.00 78 1011.1
20260506085525 41 16 0.0 0.0 0.00 0.09 0.00 78 1011.1
20260506085438 41 16 0.0 0.0 0.00 0.09 0.00 78 1011.1
20260506085306 41 16 0.0 0.0 0.00 0.09 0.00 78 1011.0
20260506085217 41 16 0.0 0.0 0.00 0.09 0.00 78 1011.0
20260506085109 41 16 0.0 0.0 0.00 0.09 0.00 78 1011.1
20260506084959 41 16 0.0 1.0 0.00 0.09 0.00 78 1011.1
20260506084910 41 16 0.0 1.0 0.00 0.09 0.00 78 1011.0
20260506084800 41 16 0.0 1.0 0.00 0.09 0.00 78 1011.0
20260506084712 41 16 0.0 1.0 0.00 0.09 0.00 78 1010.9
20260506084608 42 16 0.0 1.0 0.00 0.09 0.00 77 1010.9
20260506084531 42 16 0.0 1.0 0.00 0.09 0.00 77 1010.9
20260506084401 42 16 0.0 1.0 0.00 0.09 0.00 77 1010.9
20260506084311 42 16 0.0 1.0 0.00 0.09 0.00 77 1010.9
20260506084202 42 16 0.0 1.0 0.00 0.09 0.00 77 1010.9
20260506084113 42 16 0.0 1.0 0.00 0.09 0.00 77 1011.0
20260506084003 42 16 0.0 2.0 0.00 0.09 0.00 77 1011.0
20260506083914 42 16 0.0 2.0 0.00 0.09 0.00 77 1011.0
20260506083808 42 16 0.0 2.0 0.00 0.09 0.00 77 1010.9
20260506083718 42 16 0.0 2.0 0.00 0.09 0.00 77 1011.0
20260506083630 42 16 0.0 2.0 0.00 0.09 0.00 77 1011.0
20260506083500 42 16 0.0 2.0 0.00 0.09 0.00 77 1011.0
20260506083410 42 16 0.0 2.0 0.00 0.09 0.00 77 1011.0
20260506083304 42 16 0.0 2.0 0.00 0.09 0.00 77 1011.0
20260506083213 42 16 1.0 3.0 0.00 0.09 0.00 77 1011.0
20260506083126 42 16 1.0 4.0 0.00 0.09 0.00 77 1011.0
20260506083026 42 16 1.0 4.0 0.00 0.09 0.00 77 1010.9
20260506082916 42 16 1.0 4.0 0.00 0.09 0.00 77 1011.0
20260506082811 42 16 1.0 4.0 0.00 0.09 0.00 77 1010.9
20260506082723 42 16 1.0 4.0 0.00 0.09 0.00 78 1010.8
20260506082614 42 16 2.0 4.0 0.00 0.09 0.00 78 1010.8
20260506082525 42 16 2.0 4.0 0.00 0.09 0.00 78 1010.8
20260506082436 42 16 2.0 4.0 0.00 0.09 0.00 78 1010.8
20260506082308 42 336 2.0 4.0 0.00 0.09 0.00 78 1010.9
20260506082158 42 347 2.0 4.0 0.00 0.09 0.00 78 1010.8
20260506082108 42 17 2.0 4.0 0.00 0.09 0.00 78 1010.6
20260506081959 42 17 2.0 4.0 0.00 0.09 0.00 78 1010.7
20260506081910 42 17 2.0 4.0 0.00 0.09 0.00 78 1010.7
20260506081804 42 17 2.0 4.0 0.00 0.09 0.00 78 1010.6
20260506081715 42 36 2.0 3.0 0.00 0.09 0.00 78 1010.6
20260506081607 42 36 1.0 3.0 0.00 0.09 0.00 78 1010.5
20260506081529 42 36 1.0 3.0 0.00 0.09 0.00 78 1010.6
20260506081419 42 36 0.0 2.0 0.00 0.09 0.00 78 1010.6
20260506081310 42 36 0.0 2.0 0.00 0.09 0.00 78 1010.5
20260506081201 42 36 0.0 3.0 0.00 0.09 0.00 78 1010.5
20260506081113 42 36 0.0 3.0 0.00 0.09 0.00 78 1010.5
20260506081003 42 36 1.0 3.0 0.00 0.09 0.00 78 1010.5
20260506080919 42 36 1.0 4.0 0.00 0.09 0.00 77 1010.5
20260506080808 42 36 1.0 4.0 0.00 0.09 0.00 77 1010.5
20260506080658 42 36 1.0 4.0 0.00 0.09 0.00 77 1010.5
20260506080608 42 36 1.0 5.0 0.00 0.09 0.00 77 1010.4
20260506080459 42 36 1.0 5.0 0.00 0.09 0.00 77 1010.5
20260506080409 42 36 2.0 5.0 0.00 0.09 0.00 77 1010.4
20260506080322 42 36 2.0 5.0 0.00 0.09 0.00 77 1010.4
20260506080209 42 44 2.0 5.0 0.00 0.09 0.00 77 1010.4
20260506080121 42 39 2.0 5.0 0.00 0.09 0.00 77 1010.4
20260506073512 44 5 3.0 6.0 0.00 0.09 0.00 74 1010.6
20260506073403 44 16 2.0 6.0 0.00 0.09 0.00 74 1010.8
20260506073315 44 22 2.0 6.0 0.00 0.09 0.00 74 1010.7
20260506073203 44 16 3.0 6.0 0.00 0.09 0.00 73 1010.7
20260506073114 44 16 3.0 7.0 0.00 0.09 0.00 73 1010.6
20260506073040 44 12 3.0 6.0 0.00 0.09 0.00 73 1010.6
20260506072928 44 21 3.0 6.0 0.00 0.09 0.00 73 1010.6
20260506072759 44 24 3.0 6.0 0.00 0.09 0.00 73 1010.5
20260506072710 44 333 3.0 6.0 0.00 0.09 0.00 73 1010.5
20260506072600 44 360 3.0 6.0 0.00 0.09 0.00 73 1010.5
20260506072511 44 28 3.0 6.0 0.00 0.09 0.00 73 1010.6
20260506072420 44 25 3.0 6.0 0.00 0.09 0.00 73 1010.6
20260506072331 44 351 3.0 6.0 0.00 0.09 0.00 73 1010.5
20260506072241 44 13 2.0 6.0 0.00 0.09 0.00 73 1010.6
20260506072132 44 348 3.0 6.0 0.00 0.09 0.00 73 1010.6
20260506072022 45 15 3.0 7.0 0.00 0.09 0.00 73 1010.7
20260506071915 45 11 3.0 5.0 0.00 0.09 0.00 73 1010.6
20260506071806 45 355 3.0 6.0 0.00 0.09 0.00 72 1010.6
20260506071716 45 11 3.0 6.0 0.00 0.09 0.00 72 1010.6
20260506071607 45 5 3.0 6.0 0.00 0.09 0.00 72 1010.6
20260506071528 45 19 3.0 8.0 0.00 0.09 0.00 72 1010.6
20260506071358 45 350 3.0 8.0 0.00 0.09 0.00 72 1010.6
20260506071309 45 5 3.0 8.0 0.00 0.09 0.00 72 1010.7
20260506071200 45 5 3.0 8.0 0.00 0.09 0.00 72 1010.6
20260506071110 45 342 4.0 8.0 0.00 0.09 0.00 72 1010.6
20260506071005 45 344 4.0 8.0 0.00 0.09 0.00 72 1010.6
20260506070916 45 350 4.0 8.0 0.00 0.09 0.00 72 1010.6
20260506070828 45 15 4.0 8.0 0.00 0.09 0.00 72 1010.6
20260506070717 45 13 4.0 6.0 0.00 0.09 0.00 72 1010.5
20260506070627 45 9 4.0 7.0 0.00 0.09 0.00 72 1010.5
20260506070537 45 5 4.0 6.0 0.00 0.09 0.00 72 1010.5
20260506070407 45 36 4.0 6.0 0.00 0.09 0.00 72 1010.5
20260506070319 45 15 4.0 6.0 0.00 0.09 0.00 71 1010.5
20260506070208 45 16 4.0 6.0 0.00 0.09 0.00 71 1010.6
20260506070103 45 5 4.0 7.0 0.00 0.09 0.00 72 1010.5
20260506062416 46 329 3.0 5.0 0.00 0.09 0.00 75 1010.9
20260506062308 46 348 3.0 5.0 0.00 0.09 0.00 76 1010.8
20260506062202 46 360 3.0 5.0 0.00 0.09 0.00 76 1010.8
20260506062113 46 360 3.0 5.0 0.00 0.09 0.00 76 1010.8
20260506062004 46 344 3.0 5.0 0.00 0.09 0.00 77 1010.8
20260506061915 46 344 3.0 5.0 0.00 0.09 0.00 77 1010.7
20260506061806 46 15 3.0 5.0 0.00 0.09 0.00 77 1010.7
20260506061716 46 344 3.0 5.0 0.00 0.09 0.00 77 1010.8
20260506061607 46 348 1.0 5.0 0.00 0.09 0.00 78 1010.8
20260506061530 46 360 1.0 4.0 0.00 0.09 0.00 78 1010.8
20260506061420 46 348 1.0 4.0 0.00 0.09 0.00 78 1010.7
20260506061310 46 348 1.0 4.0 0.00 0.09 0.00 78 1010.7
20260506061205 46 348 2.0 4.0 0.00 0.09 0.00 79 1010.7
20260506061115 46 344 3.0 4.0 0.00 0.09 0.00 79 1010.6
20260506061007 46 355 3.0 4.0 0.00 0.09 0.00 79 1010.6
20260506060917 46 360 3.0 4.0 0.00 0.09 0.00 79 1010.6
20260506060809 46 344 3.0 4.0 0.00 0.09 0.00 80 1010.6
20260506060659 46 302 1.0 3.0 0.00 0.09 0.00 80 1010.6
20260506060608 46 302 1.0 3.0 0.00 0.09 0.00 81 1010.7
20260506060500 46 302 1.0 3.0 0.00 0.09 0.00 81 1010.7
20260506060414 46 302 1.0 3.0 0.00 0.09 0.00 81 1010.7
20260506060307 46 302 0.0 3.0 0.00 0.09 0.00 81 1010.7
20260506060216 46 302 0.0 3.0 0.00 0.09 0.00 82 1010.7
20260506060106 46 302 0.0 3.0 0.00 0.09 0.00 82 1010.6
20260506051415 47 302 0.0 0.0 0.00 0.09 0.00 89 1010.7
20260506051305 47 302 0.0 0.0 0.00 0.09 0.00 88 1010.7
20260506051216 47 302 0.0 0.0 0.00 0.09 0.00 88 1010.7
20260506051107 47 302 0.0 0.0 0.00 0.09 0.00 88 1010.6
20260506051017 47 302 0.0 0.0 0.00 0.09 0.00 88 1010.6
20260506050929 47 302 0.0 0.0 0.00 0.09 0.00 88 1010.6
20260506050845 47 302 0.0 0.0 0.00 0.09 0.00 88 1010.7
20260506050735 47 302 0.0 0.0 0.00 0.09 0.00 88 1010.6
20260506050605 47 302 0.0 0.0 0.00 0.09 0.00 88 1010.6
20260506050515 47 302 0.0 0.0 0.00 0.09 0.00 88 1010.6
20260506050407 47 302 0.0 0.0 0.00 0.09 0.00 88 1010.7
20260506050320 47 302 0.0 0.0 0.00 0.09 0.00 88 1010.8
20260506050209 47 302 0.0 0.0 0.00 0.09 0.00 88 1010.8
20260506050119 47 302 0.0 0.0 0.00 0.09 0.00 88 1010.7
20260506045100 47 302 0.0 0.0 0.00 0.09 0.00 87 1010.6
20260506045010 47 302 0.0 0.0 0.00 0.09 0.00 87 1010.6
20260506044905 47 302 0.0 0.0 0.00 0.09 0.00 87 1010.7
20260506044815 47 302 0.0 0.0 0.00 0.09 0.00 87 1010.7
20260506044706 47 302 0.0 1.0 0.00 0.09 0.00 87 1010.7
20260506044617 47 302 0.0 2.0 0.00 0.09 0.00 87 1010.7
20260506044539 47 302 0.0 2.0 0.00 0.09 0.00 88 1010.7
20260506044410 47 302 0.0 2.0 0.00 0.09 0.00 88 1010.6
20260506044300 47 302 0.0 2.0 0.00 0.09 0.00 88 1010.7
20260506044212 47 302 0.0 2.0 0.00 0.09 0.00 88 1010.7
20260506044107 47 302 0.0 2.0 0.00 0.09 0.00 88 1010.7
20260506043958 47 302 0.0 2.0 0.00 0.09 0.00 88 1010.6
20260506043909 47 302 1.0 2.0 0.00 0.09 0.00 88 1010.7
20260506043759 47 302 1.0 2.0 0.00 0.09 0.00 87 1010.5
20260506043710 47 302 1.0 2.0 0.00 0.09 0.00 87 1010.4
20260506043600 47 302 0.0 2.0 0.00 0.09 0.00 86 1010.5
20260506043510 47 302 0.0 1.0 0.00 0.09 0.00 86 1010.5
20260506043402 47 302 0.0 2.0 0.00 0.09 0.00 86 1010.5
20260506043314 47 302 0.0 2.0 0.00 0.09 0.00 87 1010.6
20260506043208 47 302 0.0 2.0 0.00 0.09 0.00 87 1010.6
20260506043119 47 302 0.0 2.0 0.00 0.09 0.00 87 1010.6
20260506043040 47 302 0.0 2.0 0.00 0.09 0.00 87 1010.6
20260506042929 47 302 0.0 2.0 0.00 0.09 0.00 87 1010.6
20260506042759 47 302 0.0 2.0 0.00 0.09 0.00 87 1010.5
20260506042709 47 302 0.0 2.0 0.00 0.09 0.00 88 1010.5
20260506042620 47 302 0.0 2.0 0.00 0.09 0.00 88 1010.5
20260506042532 47 302 0.0 3.0 0.00 0.09 0.00 88 1010.4
20260506042401 47 302 0.0 3.0 0.00 0.09 0.00 88 1010.5
20260506042311 47 302 0.0 3.0 0.00 0.09 0.00 88 1010.5
20260506042206 47 302 1.0 3.0 0.00 0.09 0.00 88 1010.5
20260506042116 47 302 1.0 3.0 0.00 0.09 0.00 88 1010.6
20260506042008 47 302 1.0 3.0 0.00 0.09 0.00 88 1010.4
20260506041859 47 302 1.0 3.0 0.00 0.09 0.00 88 1010.4
20260506041810 47 302 2.0 3.0 0.00 0.09 0.00 89 1010.3
20260506041700 47 302 2.0 3.0 0.00 0.09 0.00 88 1010.2
20260506041611 47 302 1.0 3.0 0.00 0.09 0.00 88 1010.2
20260506041533 47 302 1.0 3.0 0.00 0.09 0.00 88 1010.2
20260506041408 47 302 0.0 3.0 0.00 0.09 0.00 89 1010.1
20260506041318 47 302 0.0 3.0 0.00 0.09 0.00 88 1010.1
20260506041209 47 302 1.0 3.0 0.00 0.09 0.00 88 1010.1
20260506041100 47 302 1.0 3.0 0.00 0.09 0.00 89 1010.1
20260506041011 47 302 1.0 3.0 0.00 0.09 0.00 89 1010.1
20260506040902 47 302 1.0 3.0 0.00 0.09 0.00 89 1010.1
20260506040812 47 302 1.0 2.0 0.00 0.09 0.00 89 1010.2
20260506040723 47 302 1.0 2.0 0.00 0.09 0.00 89 1010.2
20260506040633 47 302 1.0 3.0 0.00 0.09 0.00 89 1010.0
20260506040545 47 302 1.0 3.0 0.00 0.09 0.00 89 1010.0
20260506040417 47 302 1.0 3.0 0.00 0.09 0.00 89 1010.0
20260506040310 47 302 1.0 3.0 0.00 0.09 0.00 89 1010.1
20260506040218 47 302 1.0 3.0 0.00 0.10 0.09 89 1010.1
20260506040110 47 302 2.0 3.0 0.00 0.10 0.09 88 1010.0
20260506040033 47 302 2.0 3.0 0.00 0.10 0.09 88 1010.0
20260506035924 47 302 2.0 3.0 0.00 0.10 0.09 88 1010.1
20260506035826 47 302 2.0 3.0 0.00 0.10 0.09 88 1010.1
20260506035716 47 302 1.0 3.0 0.00 0.10 0.09 88 1010.0
20260506035606 47 302 0.0 0.0 0.00 0.10 0.09 87 1010.0
20260506035501 47 302 0.0 0.0 0.00 0.10 0.09 87 1010.0
20260506035413 47 302 0.0 0.0 0.00 0.10 0.09 87 1009.9
20260506035324 47 302 0.0 0.0 0.00 0.10 0.09 87 1009.9
20260506035214 47 302 0.0 0.0 0.00 0.10 0.09 87 1009.9
20260506035104 47 302 0.0 0.0 0.00 0.10 0.09 87 1010.0
20260506035014 47 302 0.0 0.0 0.00 0.10 0.09 86 1010.0
20260506034926 47 302 0.0 0.0 0.00 0.10 0.09 86 1009.8
20260506034836 48 302 0.0 0.0 0.00 0.10 0.09 86 1009.8
20260506034707 48 302 0.0 0.0 0.00 0.10 0.09 86 1010.0
20260506034617 48 302 0.0 0.0 0.00 0.10 0.09 86 1009.9
20260506034524 48 302 0.0 0.0 0.00 0.10 0.09 86 1009.9
20260506034413 48 302 0.0 0.0 0.00 0.10 0.09 86 1009.9
20260506034304 48 302 0.0 0.0 0.00 0.10 0.09 86 1010.1
20260506034215 48 302 0.0 0.0 0.00 0.10 0.09 85 1010.1
20260506034106 48 302 0.0 0.0 0.00 0.10 0.09 85 1010.0
20260506034018 48 302 0.0 0.0 0.00 0.10 0.09 85 1010.0
20260506033909 48 302 0.0 0.0 0.00 0.10 0.09 85 1010.0
20260506033820 48 302 0.0 0.0 0.00 0.10 0.09 85 1010.0
20260506033709 48 302 0.0 0.0 0.00 0.10 0.09 85 1010.1
20260506033605 48 302 0.0 0.0 0.00 0.10 0.09 85 1010.0
20260506033514 48 302 0.0 0.0 0.00 0.10 0.09 85 1010.0
20260506033406 48 302 0.0 0.0 0.00 0.10 0.09 85 1010.1
20260506033319 48 302 0.0 0.0 0.00 0.10 0.09 85 1010.1
20260506033208 48 302 0.0 0.0 0.00 0.10 0.09 85 1010.1
20260506033058 48 302 0.0 0.0 0.00 0.10 0.09 85 1010.0
20260506033021 48 302 0.0 0.0 0.00 0.10 0.09 85 1010.2
20260506032910 48 302 0.0 0.0 0.00 0.10 0.09 85 1010.1
20260506032821 48 302 0.0 0.0 0.00 0.10 0.09 85 1010.1
20260506032732 48 302 0.0 0.0 0.00 0.10 0.09 85 1010.0
20260506032608 48 302 0.0 0.0 0.00 0.10 0.09 85 1010.2
20260506032459 48 302 0.0 0.0 0.00 0.10 0.09 85 1010.2
20260506032410 48 302 0.0 0.0 0.00 0.10 0.09 85 1010.2
20260506032321 48 302 0.0 0.0 0.00 0.10 0.09 85 1010.2
20260506032211 48 302 0.0 0.0 0.00 0.10 0.09 85 1010.2
20260506032103 48 302 0.0 0.0 0.00 0.10 0.09 85 1010.2
20260506032013 48 302 0.0 0.0 0.00 0.10 0.09 85 1010.2
20260506031903 48 302 0.0 0.0 0.00 0.10 0.09 85 1010.2
20260506031815 48 302 0.0 0.0 0.00 0.10 0.09 85 1010.2
20260506031731 48 302 0.0 0.0 0.00 0.10 0.09 85 1010.2
20260506031622 48 302 0.0 0.0 0.00 0.10 0.09 85 1010.2
20260506031544 48 302 0.0 0.0 0.00 0.10 0.09 85 1010.1
20260506031413 48 302 0.0 0.0 0.00 0.10 0.09 85 1010.0
20260506031304 48 302 0.0 0.0 0.00 0.10 0.09 85 1010.0
20260506031215 48 302 0.0 0.0 0.00 0.10 0.09 85 1010.0
20260506031105 48 302 0.0 0.0 0.00 0.10 0.09 84 1010.1
20260506031016 48 302 0.0 0.0 0.00 0.10 0.09 84 1010.1
20260506030906 48 302 0.0 0.0 0.00 0.10 0.09 84 1010.0
20260506030800 48 302 0.0 0.0 0.00 0.10 0.09 84 1010.0
20260506030712 48 302 0.0 0.0 0.00 0.10 0.09 84 1010.0
20260506030623 48 302 0.0 0.0 0.00 0.10 0.09 84 1010.0
20260506030535 48 302 0.0 0.0 0.00 0.10 0.09 84 1009.9
20260506030424 48 302 0.0 0.0 0.00 0.10 0.09 84 1010.0
20260506030336 48 302 0.0 0.0 0.00 0.10 0.09 84 1009.9
20260506030204 48 302 0.0 0.0 0.00 0.10 0.09 84 1010.0
20260506030115 48 302 0.0 0.0 0.00 0.10 0.09 84 1009.9
20260506030037 48 302 0.0 0.0 0.00 0.10 0.09 84 1010.0
20260506025908 48 302 0.0 0.0 0.00 0.10 0.09 84 1009.9
20260506025803 48 302 0.0 0.0 0.00 0.10 0.09 84 1010.0
20260506025715 48 302 0.0 0.0 0.00 0.10 0.09 84 1009.9
20260506025606 48 302 0.0 0.0 0.00 0.10 0.09 84 1010.0
20260506025458 48 302 0.0 0.0 0.00 0.10 0.09 84 1010.0
20260506025408 48 302 0.0 0.0 0.00 0.10 0.09 84 1009.9
20260506025259 48 302 0.0 0.0 0.00 0.10 0.09 84 1009.9
20260506025210 48 302 0.0 0.0 0.00 0.10 0.09 84 1009.9
20260506025101 48 302 0.0 0.0 0.00 0.10 0.09 84 1010.0
20260506025013 48 302 0.0 0.0 0.00 0.10 0.09 84 1010.0
20260506024909 48 302 0.0 0.0 0.00 0.10 0.09 84 1009.9
20260506024759 48 302 0.0 0.0 0.00 0.10 0.09 83 1009.8
20260506024710 48 302 0.0 0.0 0.00 0.10 0.09 83 1009.9
20260506024600 48 302 0.0 0.0 0.00 0.10 0.09 83 1009.9
20260506024522 48 302 0.0 0.0 0.00 0.10 0.09 83 1009.9
20260506024412 48 302 0.0 0.0 0.00 0.10 0.09 83 1009.9
20260506024324 48 302 0.0 0.0 0.00 0.10 0.09 83 1009.9
20260506024234 48 302 0.0 0.0 0.00 0.10 0.09 83 1009.9
20260506024105 48 302 0.0 0.0 0.00 0.10 0.09 84 1009.9
20260506023959 48 302 0.0 0.0 0.00 0.10 0.09 84 1009.9
20260506023911 48 302 0.0 0.0 0.00 0.10 0.09 84 1009.9
20260506023822 48 302 0.0 0.0 0.00 0.10 0.09 84 1009.8
20260506023714 48 302 0.0 0.0 0.00 0.10 0.09 83 1009.8
20260506023604 48 302 0.0 0.0 0.00 0.10 0.09 83 1009.7
20260506023516 48 302 0.0 0.0 0.00 0.10 0.09 83 1009.8
20260506023406 48 302 0.0 0.0 0.00 0.10 0.09 83 1009.7
20260506023318 48 302 0.0 0.0 0.00 0.10 0.09 83 1009.7
20260506023206 48 302 0.0 0.0 0.00 0.10 0.09 83 1009.7
20260506023100 48 302 0.0 0.0 0.00 0.10 0.09 83 1009.7
20260506023023 48 302 0.0 0.0 0.00 0.10 0.09 83 1009.6
20260506022914 49 302 0.0 0.0 0.00 0.10 0.09 83 1009.6
20260506022804 49 302 0.0 0.0 0.00 0.10 0.09 83 1009.7
20260506022715 48 302 0.0 0.0 0.00 0.10 0.09 82 1009.8
20260506022606 48 302 0.0 0.0 0.00 0.10 0.09 82 1009.7
20260506022518 48 302 0.0 0.0 0.00 0.10 0.09 82 1009.7
20260506022408 49 302 0.0 0.0 0.00 0.10 0.09 82 1009.6
20260506022259 48 302 0.0 0.0 0.00 0.10 0.09 82 1009.7
20260506022215 49 302 0.0 0.0 0.00 0.10 0.09 82 1009.7
20260506022106 48 302 0.0 0.0 0.00 0.10 0.09 82 1009.8
20260506022017 49 302 0.0 0.0 0.00 0.10 0.09 82 1009.8
20260506021907 48 302 0.0 0.0 0.00 0.10 0.09 81 1009.6
20260506021759 49 302 0.0 0.0 0.00 0.10 0.09 81 1009.7
20260506021710 49 302 0.0 0.0 0.00 0.10 0.09 82 1009.7
20260506021622 49 302 0.0 0.0 0.00 0.10 0.09 82 1009.7
20260506021544 49 302 0.0 0.0 0.00 0.10 0.09 82 1009.7
20260506021433 49 302 0.0 0.0 0.00 0.10 0.09 82 1009.7
20260506021325 49 302 0.0 0.0 0.00 0.10 0.09 82 1009.7
20260506021218 49 302 0.0 0.0 0.00 0.10 0.09 82 1009.7
20260506021129 49 302 0.0 0.0 0.00 0.10 0.09 82 1009.7
20260506021040 49 302 0.0 0.0 0.00 0.10 0.09 82 1009.7
20260506020931 49 302 0.0 0.0 0.00 0.10 0.09 81 1009.6
20260506020802 49 302 0.0 0.0 0.00 0.10 0.09 81 1009.6
20260506020712 49 302 0.0 0.0 0.00 0.10 0.09 81 1009.6
20260506020602 49 302 0.0 0.0 0.00 0.10 0.09 81 1009.6
20260506020513 49 302 0.0 0.0 0.00 0.10 0.09 81 1009.6
20260506020424 49 302 0.0 0.0 0.00 0.10 0.09 81 1009.7
20260506020336 49 302 0.0 0.0 0.00 0.10 0.09 81 1009.7
20260506020210 49 302 0.0 0.0 0.00 0.32 0.09 80 1009.7
20260506020100 49 302 0.0 0.0 0.00 0.32 0.09 80 1009.6
20260506020023 49 302 0.0 0.0 0.00 0.32 0.09 80 1009.7
20260506015913 49 302 0.0 0.0 0.00 0.32 0.09 80 1009.7
20260506015823 49 302 0.0 0.0 0.00 0.32 0.09 79 1009.6
20260506015733 49 302 0.0 0.0 0.00 0.32 0.09 79 1009.7
20260506015622 49 302 0.0 0.0 0.00 0.32 0.09 79 1009.6
20260506015512 49 302 0.0 0.0 0.00 0.32 0.09 79 1009.6
20260506015402 49 302 0.0 0.0 0.00 0.32 0.09 79 1009.6
20260506015313 49 302 0.0 0.0 0.00 0.32 0.09 78 1009.6
20260506015223 49 302 0.0 0.0 0.00 0.32 0.09 78 1009.6
20260506015137 49 302 0.0 0.0 0.00 0.32 0.09 78 1009.6
20260506015047 49 302 0.0 0.0 0.00 0.32 0.09 78 1009.6
20260506014938 49 302 0.0 0.0 0.00 0.32 0.09 77 1009.6
20260506014808 49 302 0.0 0.0 0.00 0.32 0.09 78 1009.6
20260506014659 49 302 0.0 0.0 0.00 0.32 0.09 78 1009.5
20260506014612 49 302 0.0 0.0 0.00 0.32 0.09 78 1009.5
20260506014533 49 302 0.0 0.0 0.00 0.32 0.09 78 1009.5
20260506014404 49 302 0.0 0.0 0.00 0.32 0.09 78 1009.4
20260506014315 49 302 0.0 0.0 0.00 0.32 0.09 78 1009.4
20260506014226 49 302 0.0 0.0 0.00 0.32 0.09 78 1009.5
20260506014140 49 302 0.0 0.0 0.00 0.32 0.09 78 1009.4
20260506014031 49 302 0.0 0.0 0.00 0.32 0.09 78 1009.3
20260506013942 49 302 0.0 0.0 0.00 0.32 0.09 78 1009.4
20260506013831 49 302 0.0 0.0 0.00 0.32 0.09 79 1009.3
20260506013723 49 302 0.0 0.0 0.00 0.32 0.09 79 1009.3
20260506013613 49 302 0.0 0.0 0.00 0.32 0.09 79 1009.2
20260506013525 49 302 0.0 0.0 0.00 0.32 0.09 79 1009.2
20260506013415 49 302 0.0 0.0 0.00 0.32 0.09 79 1009.2
20260506013308 49 302 0.0 0.0 0.00 0.32 0.09 78 1009.1
20260506013217 49 302 0.0 0.0 0.00 0.32 0.09 78 1009.1
20260506013119 49 302 0.0 0.0 0.00 0.32 0.09 77 1009.0
20260506013024 49 302 0.0 0.0 0.00 0.32 0.09 76 1009.0
20260506012914 49 302 0.0 0.0 0.00 0.32 0.09 75 1009.1
20260506012806 49 302 0.0 0.0 0.00 0.32 0.09 75 1009.1
20260506012716 49 302 0.0 0.0 0.00 0.32 0.09 74 1009.2
20260506012608 49 302 0.0 0.0 0.00 0.32 0.09 74 1009.3
20260506012519 49 302 0.0 0.0 0.00 0.32 0.09 74 1009.4
20260506012430 49 302 0.0 0.0 0.00 0.32 0.09 74 1009.3
20260506012300 49 302 0.0 0.0 0.00 0.32 0.09 74 1009.2
20260506012210 49 302 0.0 0.0 0.00 0.32 0.09 74 1009.2
20260506012122 49 302 0.0 0.0 0.00 0.32 0.09 74 1009.1
20260506012037 50 302 0.0 0.0 0.00 0.32 0.09 74 1009.0
20260506011908 50 302 0.0 0.0 0.00 0.32 0.09 74 1008.9
20260506011758 50 302 0.0 0.0 0.00 0.32 0.09 73 1008.9
20260506011710 50 302 0.0 0.0 0.00 0.32 0.09 73 1008.9
20260506011600 50 302 0.0 0.0 0.00 0.32 0.09 73 1008.9
20260506011523 50 302 0.0 0.0 0.00 0.32 0.09 73 1009.1
20260506011412 50 302 0.0 0.0 0.00 0.32 0.09 73 1009.0
20260506011304 50 302 0.0 0.0 0.00 0.32 0.09 73 1009.0
20260506011214 50 302 0.0 0.0 0.00 0.32 0.09 73 1009.0
20260506011128 50 302 0.0 0.0 0.00 0.32 0.09 73 1009.0
20260506011039 50 302 0.0 0.0 0.00 0.32 0.09 73 1008.9
20260506010909 50 302 0.0 0.0 0.00 0.32 0.09 73 1008.9
20260506010821 50 302 0.0 0.0 0.00 0.32 0.09 73 1008.8
20260506010731 50 302 0.0 0.0 0.00 0.32 0.09 73 1008.8
20260506010621 50 302 0.0 0.0 0.00 0.32 0.09 73 1008.7
20260506010532 50 302 0.0 0.0 0.00 0.32 0.09 73 1008.7
20260506010403 50 302 0.0 0.0 0.00 0.32 0.09 73 1008.8
20260506010315 50 302 0.0 0.0 0.00 0.32 0.09 73 1008.7
20260506010224 50 302 0.0 0.0 0.00 0.32 0.09 73 1008.8
20260506010134 50 302 0.0 0.0 0.00 0.32 0.09 73 1008.8
20260506010039 50 302 0.0 0.0 0.00 0.32 0.09 73 1008.8
20260506005928 50 302 0.0 0.0 0.00 0.32 0.09 73 1008.7
20260506005818 50 302 0.0 0.0 0.00 0.32 0.09 73 1008.8
20260506005707 50 302 0.0 0.0 0.00 0.32 0.09 72 1008.7
20260506005559 50 302 0.0 0.0 0.00 0.32 0.09 70 1008.7
20260506005510 50 302 0.0 0.0 0.00 0.32 0.09 70 1008.7
20260506005401 50 302 0.0 0.0 0.00 0.32 0.09 69 1008.8
20260506005311 50 302 0.0 0.0 0.00 0.32 0.09 68 1008.7
20260506005201 50 302 0.0 0.0 0.00 0.32 0.09 67 1008.7
20260506005117 50 302 0.0 0.0 0.00 0.32 0.09 63 1008.7
20260506005028 50 302 0.0 0.0 0.00 0.32 0.09 63 1008.7
20260506004940 50 302 0.0 0.0 0.00 0.32 0.09 65 1008.6
20260506004830 50 302 0.0 0.0 0.00 0.32 0.09 65 1008.6
20260506004701 50 302 0.0 0.0 0.00 0.32 0.09 64 1008.8
20260506004611 50 302 0.0 0.0 0.00 0.32 0.09 63 1008.7
20260506004531 50 302 0.0 0.0 0.00 0.32 0.09 63 1008.9
20260506004402 50 302 0.0 0.0 0.00 0.32 0.09 62 1008.9
20260506004312 50 302 0.0 0.0 0.00 0.32 0.09 62 1008.9
20260506004205 50 302 0.0 0.0 0.00 0.32 0.09 63 1008.8
20260506004119 50 302 0.0 0.0 0.00 0.32 0.09 64 1008.9
20260506004009 50 302 0.0 0.0 0.00 0.32 0.09 63 1008.9
20260506003859 50 302 0.0 0.0 0.00 0.32 0.09 61 1008.8
20260506003811 50 302 0.0 0.0 0.00 0.32 0.09 61 1008.8
20260506003724 50 302 0.0 0.0 0.00 0.32 0.09 61 1008.8
20260506003636 50 302 0.0 0.0 0.00 0.32 0.09 61 1008.8
20260506003505 50 302 0.0 0.0 0.00 0.32 0.09 61 1008.8
20260506003416 50 302 0.0 0.0 0.00 0.32 0.09 62 1008.7
20260506003308 51 302 0.0 0.0 0.00 0.32 0.09 63 1008.8
20260506003201 51 302 0.0 0.0 0.00 0.32 0.09 65 1008.8
20260506003112 51 302 0.0 0.0 0.00 0.32 0.09 66 1008.7
20260506003034 51 302 0.0 0.0 0.00 0.32 0.09 66 1008.8
20260506002903 51 302 0.0 0.0 0.00 0.32 0.09 65 1008.9
20260506002814 51 302 0.0 0.0 0.00 0.32 0.09 65 1008.9
20260506002705 51 302 0.0 0.0 0.00 0.32 0.09 65 1008.8
20260506002615 51 302 0.0 0.0 0.00 0.32 0.09 66 1008.8
20260506002527 51 302 0.0 0.0 0.00 0.32 0.09 62 1008.8
20260506002416 51 302 0.0 0.0 0.00 0.32 0.09 63 1008.9
20260506002307 51 302 0.0 0.0 0.00 0.32 0.09 62 1008.9
20260506002223 51 302 0.0 0.0 0.00 0.32 0.09 62 1008.9
20260506002113 51 302 0.0 0.0 0.00 0.32 0.09 62 1008.8
20260506002004 51 302 0.0 0.0 0.00 0.32 0.09 59 1008.8
20260506001915 51 302 0.0 0.0 0.00 0.32 0.09 58 1008.7
20260506001804 51 302 0.0 0.0 0.00 0.32 0.09 58 1008.7
20260506001716 51 302 0.0 0.0 0.00 0.32 0.09 59 1008.8
20260506001607 51 302 0.0 0.0 0.00 0.32 0.09 59 1008.7
20260506001530 51 302 0.0 0.0 0.00 0.32 0.09 58 1008.7
20260506001401 51 302 0.0 0.0 0.00 0.32 0.09 58 1008.8
20260506001317 51 302 0.0 0.0 0.00 0.32 0.09 60 1008.7
20260506001207 51 302 0.0 0.0 0.00 0.32 0.09 59 1008.7
20260506001058 51 302 0.0 0.0 0.00 0.32 0.09 59 1008.6
20260506001008 51 302 0.0 0.0 0.00 0.32 0.09 58 1008.6
20260506000920 51 302 0.0 0.0 0.00 0.32 0.09 58 1008.7
20260506000831 51 302 0.0 0.0 0.00 0.32 0.09 60 1008.7
20260506000700 51 302 0.0 0.0 0.00 0.32 0.09 62 1008.8
20260506000612 51 302 0.0 0.0 0.00 0.32 0.09 61 1008.8
20260506000523 51 302 0.0 0.0 0.00 0.32 0.09 59 1008.9
20260506000413 51 302 0.0 0.0 0.00 0.32 0.09 57 1008.8
20260506000311 51 302 0.0 0.0 0.00 0.32 0.09 58 1008.7
20260506000219 51 302 0.0 0.0 0.00 0.42 0.09 59 1008.7
20260506000130 51 302 0.0 1.0 0.00 0.42 0.09 59 1008.7
20260506000051 51 302 0.0 1.0 0.00 0.42 0.09 61 1008.8
20260505235859 51 302 0.0 1.0 0.00 0.42 0.09 58 1008.8
20260505235810 51 302 0.0 1.0 0.00 0.42 0.09 57 1008.8
20260505235700 51 302 0.0 1.0 0.00 0.42 0.09 59 1008.8
20260505235612 51 302 0.0 1.0 0.00 0.42 0.09 57 1008.8
20260505235502 51 302 0.0 1.0 0.00 0.42 0.09 57 1008.8
20260505235417 51 302 0.0 2.0 0.00 0.42 0.09 59 1008.8
20260505235308 51 302 0.0 2.0 0.00 0.42 0.09 59 1008.9
20260505235158 51 302 0.0 2.0 0.00 0.42 0.09 60 1008.9
20260505235109 51 302 0.0 2.0 0.00 0.42 0.09 60 1008.9
20260505234959 51 302 0.0 2.0 0.00 0.42 0.09 60 1008.9
20260505234911 52 302 0.0 2.0 0.00 0.42 0.09 60 1009.0
20260505234821 52 302 0.0 2.0 0.00 0.42 0.09 60 1009.0
20260505234712 52 302 1.0 2.0 0.00 0.42 0.09 60 1008.9
20260505234602 52 302 1.0 2.0 0.00 0.42 0.09 60 1008.9
20260505234527 52 302 0.0 2.0 0.00 0.42 0.09 60 1009.0
20260505234418 52 302 0.0 0.0 0.00 0.42 0.09 59 1008.9
20260505234200 52 302 0.0 0.0 0.00 0.42 0.09 57 1009.0
20260505234110 52 302 0.0 0.0 0.00 0.42 0.09 55 1009.0
20260505234021 52 302 0.0 0.0 0.00 0.42 0.09 57 1008.9
20260505233932 52 302 0.0 0.0 0.00 0.42 0.09 57 1009.0
20260505233822 52 302 0.0 0.0 0.00 0.42 0.09 58 1009.0
20260505233711 52 302 0.0 0.0 0.00 0.42 0.09 59 1008.9
20260505233603 52 302 0.0 0.0 0.00 0.42 0.09 60 1008.9
20260505233517 52 302 0.0 0.0 0.00 0.42 0.09 59 1008.9
20260505233408 52 302 0.0 0.0 0.00 0.42 0.09 58 1009.0
20260505233320 52 302 0.0 0.0 0.00 0.42 0.09 57 1009.1
20260505233209 52 302 0.0 0.0 0.00 0.42 0.09 57 1009.0
20260505233119 52 302 0.0 0.0 0.00 0.42 0.09 56 1009.0
20260505233021 52 302 0.0 1.0 0.00 0.42 0.09 57 1009.0
20260505232911 52 302 0.0 2.0 0.00 0.42 0.09 57 1009.0
20260505232823 52 302 0.0 2.0 0.00 0.42 0.09 59 1009.1
20260505232734 52 302 0.0 2.0 0.00 0.42 0.09 58 1009.0
20260505232603 52 302 0.0 2.0 0.00 0.42 0.09 57 1008.9
20260505232519 52 302 0.0 2.0 0.00 0.42 0.09 59 1009.0
20260505232409 52 302 0.0 2.0 0.00 0.42 0.09 60 1009.0
20260505232301 52 302 0.0 2.0 0.00 0.42 0.09 59 1009.0
20260505232212 52 302 0.0 2.0 0.00 0.42 0.09 59 1009.1
20260505232103 52 302 0.0 2.0 0.00 0.42 0.09 60 1009.1
20260505232015 52 302 0.0 0.0 0.00 0.42 0.09 60 1009.0
20260505231906 52 302 0.0 0.0 0.00 0.42 0.09 62 1009.0
20260505231816 52 302 0.0 0.0 0.00 0.42 0.09 62 1008.9
20260505231707 52 302 0.0 0.0 0.00 0.42 0.09 60 1009.0
20260505231602 52 302 0.0 0.0 0.00 0.42 0.09 61 1009.1
20260505231525 52 302 0.0 0.0 0.00 0.42 0.09 61 1009.0
20260505231414 52 302 0.0 0.0 0.00 0.42 0.09 59 1009.0
20260505231325 52 302 0.0 0.0 0.00 0.42 0.09 59 1009.0
20260505231216 52 302 0.0 0.0 0.00 0.42 0.09 60 1009.0
20260505231127 52 302 0.0 0.0 0.00 0.42 0.09 59 1009.0
20260505231037 52 302 0.0 0.0 0.00 0.42 0.09 58 1009.0
20260505230907 52 302 0.0 0.0 0.00 0.42 0.09 58 1009.0
20260505230817 52 302 0.0 0.0 0.00 0.42 0.09 58 1009.0
20260505230708 52 302 0.0 0.0 0.00 0.42 0.09 59 1009.0
20260505230602 52 302 0.0 0.0 0.00 0.42 0.09 60 1009.1
20260505230512 52 302 0.0 0.0 0.00 0.42 0.09 59 1009.1
20260505230424 52 302 0.0 0.0 0.00 0.42 0.09 58 1009.1
20260505230334 52 302 0.0 0.0 0.00 0.42 0.09 56 1009.1
20260505230246 52 302 0.0 0.0 0.00 0.42 0.09 56 1009.1
20260505230154 52 302 0.0 0.0 0.00 0.46 0.09 57 1009.2
20260505230056 52 302 0.0 0.0 0.00 0.46 0.09 56 1009.2
20260505225904 52 302 0.0 0.0 0.00 0.46 0.09 57 1009.2
20260505225816 52 302 0.0 1.0 0.00 0.46 0.09 57 1009.2
20260505225728 52 302 0.0 2.0 0.00 0.46 0.09 56 1009.2
20260505225601 52 302 0.0 2.0 0.00 0.46 0.09 58 1009.2
20260505225513 52 302 0.0 2.0 0.00 0.46 0.09 59 1009.2
20260505225403 52 302 0.0 2.0 0.00 0.46 0.09 58 1009.2
20260505225314 52 302 0.0 2.0 0.00 0.46 0.09 58 1009.2
20260505225204 52 302 0.0 2.0 0.00 0.46 0.09 59 1009.3
20260505225114 52 302 0.0 2.0 0.00 0.46 0.09 59 1009.2
20260505225005 52 302 0.0 2.0 0.00 0.46 0.09 57 1009.3
20260505224915 52 302 0.0 2.0 0.00 0.46 0.09 59 1009.3
20260505224806 52 302 0.0 0.0 0.00 0.46 0.09 60 1009.3
20260505224701 52 302 0.0 0.0 0.00 0.46 0.09 59 1009.3
20260505224604 52 302 0.0 0.0 0.00 0.46 0.09 60 1009.3
20260505224454 52 302 0.0 0.0 0.00 0.46 0.09 59 1009.3
20260505224332 52 302 0.0 0.0 0.00 0.46 0.09 59 1009.3
20260505224221 52 302 0.0 0.0 0.00 0.46 0.09 59 1009.2
20260505224112 52 302 0.0 0.0 0.00 0.46 0.09 59 1009.2
20260505224004 52 302 0.0 0.0 0.00 0.46 0.09 59 1009.3
20260505223915 52 302 0.0 0.0 0.00 0.46 0.09 58 1009.3
20260505223824 52 302 0.0 0.0 0.00 0.46 0.09 58 1009.3
20260505223713 52 302 0.0 0.0 0.00 0.46 0.09 58 1009.2
20260505223609 52 302 0.0 0.0 0.00 0.46 0.09 59 1009.3
20260505223501 52 302 0.0 0.0 0.00 0.46 0.09 59 1009.2
20260505223412 52 302 0.0 0.0 0.00 0.46 0.09 60 1009.2
20260505223325 52 302 0.0 0.0 0.00 0.46 0.09 59 1009.2
20260505223214 52 302 0.0 0.0 0.00 0.46 0.09 58 1009.2
20260505223117 52 302 0.0 0.0 0.00 0.46 0.09 59 1009.3
20260505223019 52 302 0.0 0.0 0.00 0.46 0.09 59 1009.3
20260505222909 52 302 0.0 0.0 0.00 0.46 0.09 58 1009.3
20260505222801 52 302 0.0 1.0 0.00 0.46 0.09 58 1009.3
20260505222716 52 302 0.0 2.0 0.00 0.46 0.09 58 1009.3
20260505222607 52 302 0.0 2.0 0.00 0.46 0.09 57 1009.3
20260505222458 52 302 0.0 2.0 0.00 0.46 0.09 57 1009.3
20260505222409 52 302 0.0 2.0 0.00 0.46 0.09 57 1009.3
20260505222300 52 302 0.0 2.0 0.00 0.46 0.09 57 1009.3
20260505222210 52 302 0.0 2.0 0.00 0.46 0.09 57 1009.3
20260505222102 52 302 0.0 2.0 0.00 0.46 0.09 57 1009.3
20260505222013 52 302 1.0 2.0 0.00 0.46 0.09 55 1009.3
20260505221926 52 302 1.0 2.0 0.00 0.46 0.09 54 1009.3
20260505221841 52 302 1.0 2.0 0.00 0.46 0.09 55 1009.2
20260505221731 52 302 0.0 2.0 0.00 0.46 0.09 56 1009.1
20260505221622 52 302 0.0 2.0 0.00 0.46 0.09 55 1009.1
20260505221545 52 302 0.0 2.0 0.00 0.46 0.09 53 1009.2
20260505221414 52 302 0.0 2.0 0.00 0.46 0.09 53 1009.2
20260505221305 52 302 0.0 2.0 0.00 0.46 0.09 54 1009.2
20260505221217 52 302 0.0 2.0 0.00 0.46 0.09 56 1009.1
20260505221108 52 302 0.0 2.0 0.00 0.46 0.09 55 1009.2
20260505220959 52 302 0.0 2.0 0.00 0.46 0.09 55 1009.4
20260505220911 52 302 0.0 2.0 0.00 0.46 0.09 55 1009.2
20260505220805 52 302 1.0 2.0 0.00 0.46 0.09 54 1009.2
20260505220717 52 302 1.0 2.0 0.00 0.46 0.09 52 1009.3
20260505220607 52 302 0.0 2.0 0.00 0.46 0.09 54 1009.2
20260505220518 52 302 0.0 2.0 0.00 0.46 0.09 54 1009.2
20260505220428 52 302 0.0 2.0 0.00 0.46 0.09 56 1009.1
20260505220319 52 302 0.0 2.0 0.00 0.46 0.09 55 1009.2
20260505220208 52 302 0.0 3.0 0.00 0.46 0.09 54 1009.2
20260505220119 52 302 0.0 3.0 0.00 0.46 0.09 54 1009.2
20260505220021 52 302 0.0 3.0 0.00 0.46 0.09 54 1009.2
20260505215910 52 302 0.0 3.0 0.00 0.46 0.09 55 1009.1
20260505215805 52 302 0.0 3.0 0.00 0.46 0.09 56 1009.2
20260505215717 52 302 0.0 3.0 0.00 0.46 0.09 54 1009.2
20260505215608 52 302 0.0 3.0 0.00 0.46 0.09 55 1009.1
20260505215459 52 302 0.0 3.0 0.00 0.46 0.09 53 1009.2
20260505215411 52 302 1.0 3.0 0.00 0.46 0.09 53 1009.1
20260505215305 52 302 1.0 4.0 0.00 0.46 0.09 53 1009.2
20260505215214 52 302 2.0 4.0 0.00 0.46 0.09 53 1009.2
20260505215104 52 302 2.0 4.0 0.00 0.46 0.09 53 1009.1
20260505215019 52 302 1.0 4.0 0.00 0.46 0.09 53 1009.1
20260505214910 52 302 1.0 4.0 0.00 0.46 0.09 52 1009.2
20260505214802 52 302 1.0 4.0 0.00 0.46 0.09 51 1009.2
20260505214711 52 302 2.0 4.0 0.00 0.46 0.09 50 1009.1
20260505214622 52 302 3.0 4.0 0.00 0.46 0.09 50 1009.1
20260505214545 52 302 3.0 4.0 0.00 0.46 0.09 50 1009.1
20260505214435 52 302 1.0 3.0 0.00 0.46 0.09 54 1009.1
20260505214303 52 302 0.0 2.0 0.00 0.46 0.09 57 1009.0
20260505214214 52 302 0.0 2.0 0.00 0.46 0.09 57 1009.2
20260505214105 52 302 0.0 2.0 0.00 0.46 0.09 55 1009.0
20260505214001 52 302 0.0 2.0 0.00 0.46 0.09 56 1009.0
20260505213911 52 302 0.0 2.0 0.00 0.46 0.09 56 1009.1
20260505213822 52 302 0.0 2.0 0.00 0.46 0.09 55 1009.1
20260505213711 52 302 0.0 2.0 0.00 0.46 0.09 58 1009.1
20260505213602 52 302 0.0 2.0 0.00 0.46 0.09 55 1009.1
20260505213514 51 302 1.0 3.0 0.00 0.46 0.09 54 1009.1
20260505213404 51 302 1.0 3.0 0.00 0.46 0.09 53 1009.1
20260505213317 51 302 1.0 3.0 0.00 0.46 0.09 53 1009.1
20260505213207 52 302 1.0 3.0 0.00 0.46 0.09 52 1009.1
20260505213123 51 302 1.0 3.0 0.00 0.46 0.09 54 1009.1
20260505213044 51 302 1.0 3.0 0.00 0.46 0.09 53 1009.1
20260505212913 51 302 1.0 3.0 0.00 0.46 0.09 53 1009.1
20260505212805 51 302 1.0 3.0 0.00 0.46 0.09 56 1009.1
20260505212716 51 302 2.0 3.0 0.00 0.46 0.09 56 1009.1
20260505212606 51 302 2.0 3.0 0.00 0.46 0.09 55 1009.1
20260505212517 51 302 2.0 3.0 0.00 0.46 0.09 53 1009.2
20260505212407 51 302 2.0 4.0 0.00 0.46 0.09 52 1009.2
20260505212259 51 302 1.0 4.0 0.00 0.46 0.09 53 1009.2
20260505212213 51 302 1.0 5.0 0.00 0.46 0.09 52 1009.3
20260505212122 51 302 2.0 5.0 0.00 0.46 0.09 53 1009.3
20260505212033 51 302 1.0 5.0 0.00 0.46 0.09 53 1009.2
20260505211922 51 302 1.0 5.0 0.00 0.46 0.09 52 1009.3
20260505211834 51 302 1.0 5.0 0.00 0.46 0.09 54 1009.3
20260505211744 51 302 2.0 5.0 0.00 0.46 0.09 53 1009.3
20260505211657 51 282 3.0 5.0 0.00 0.46 0.09 52 1009.4
20260505211558 51 267 3.0 5.0 0.00 0.46 0.09 51 1009.4
20260505211427 51 296 3.0 5.0 0.00 0.46 0.09 51 1009.4
20260505211317 51 288 3.0 5.0 0.00 0.46 0.09 52 1009.4
20260505211207 51 321 3.0 5.0 0.00 0.46 0.09 53 1009.4
20260505211118 51 317 3.0 5.0 0.00 0.46 0.09 53 1009.3
20260505211034 51 313 3.0 5.0 0.00 0.46 0.09 53 1009.3
20260505210923 51 324 3.0 5.0 0.00 0.46 0.09 53 1009.4
20260505210835 51 311 3.0 5.0 0.00 0.46 0.09 53 1009.4
20260505210704 51 311 3.0 5.0 0.00 0.46 0.09 52 1009.4
20260505210614 51 329 3.0 5.0 0.00 0.46 0.09 52 1009.4
20260505210507 51 323 2.0 6.0 0.00 0.46 0.09 51 1009.4
20260505210418 51 300 2.0 6.0 0.00 0.46 0.09 51 1009.4
20260505210332 51 281 3.0 6.0 0.00 0.46 0.09 51 1009.4
20260505210220 51 272 3.0 6.0 0.00 0.46 0.09 53 1009.4
20260505210131 51 261 3.0 5.0 0.00 0.46 0.09 52 1009.4
20260505210053 51 310 2.0 5.0 0.00 0.46 0.09 52 1009.4
20260505205905 51 296 2.0 5.0 0.00 0.46 0.09 53 1009.4
20260505205815 51 300 2.0 6.0 0.00 0.46 0.09 54 1009.4
20260505205705 51 289 2.0 6.0 0.00 0.46 0.09 54 1009.5
20260505205615 51 270 2.0 6.0 0.00 0.46 0.09 53 1009.5
20260505205526 51 307 1.0 6.0 0.00 0.46 0.09 54 1009.5
20260505205437 51 307 2.0 6.0 0.00 0.46 0.09 52 1009.5
20260505205308 51 307 2.0 8.0 0.00 0.46 0.09 51 1009.4
20260505205218 51 296 2.0 8.0 0.00 0.46 0.09 51 1009.5
20260505205109 51 280 4.0 8.0 0.00 0.46 0.09 51 1009.5
20260505205004 51 290 4.0 8.0 0.00 0.46 0.09 52 1009.5
20260505204916 51 301 3.0 8.0 0.00 0.46 0.09 52 1009.4
20260505204826 51 294 3.0 8.0 0.00 0.46 0.09 52 1009.5
20260505204716 51 288 3.0 8.0 0.00 0.46 0.09 52 1009.4
20260505204606 51 291 3.0 8.0 0.00 0.46 0.09 51 1009.3
20260505204528 51 290 3.0 8.0 0.00 0.46 0.09 51 1009.3
20260505204416 51 294 3.0 8.0 0.00 0.46 0.09 52 1009.3
20260505204306 51 304 4.0 8.0 0.00 0.46 0.09 52 1009.2
20260505204216 51 315 4.0 8.0 0.00 0.46 0.09 53 1009.3
20260505204112 51 313 3.0 8.0 0.00 0.46 0.09 52 1009.2
20260505204003 51 323 2.0 8.0 0.00 0.46 0.09 50 1009.2
20260505203914 51 323 3.0 8.0 0.00 0.46 0.09 50 1009.2
20260505203804 51 298 3.0 10.0 0.00 0.46 0.09 52 1009.3
20260505203715 51 292 3.0 10.0 0.00 0.46 0.09 53 1009.4
20260505203605 51 309 4.0 10.0 0.00 0.46 0.09 52 1009.3
20260505203515 51 277 5.0 10.0 0.00 0.46 0.09 51 1009.4
20260505203408 51 301 5.0 10.0 0.00 0.46 0.09 51 1009.4
20260505203305 51 294 4.0 10.0 0.00 0.46 0.09 50 1009.4
20260505203215 51 309 4.0 10.0 0.00 0.46 0.09 50 1009.4
20260505203126 51 279 4.0 10.0 0.00 0.46 0.09 50 1009.4
20260505203048 51 297 4.0 10.0 0.00 0.46 0.09 50 1009.4
20260505202937 51 310 3.0 9.0 0.00 0.46 0.09 52 1009.3
20260505202807 51 286 4.0 9.0 0.00 0.46 0.09 52 1009.4
20260505202717 51 281 4.0 9.0 0.00 0.46 0.09 52 1009.4
20260505202607 51 298 3.0 8.0 0.00 0.46 0.09 52 1009.5
20260505202518 51 296 3.0 8.0 0.00 0.46 0.09 53 1009.4
20260505202428 51 282 3.0 8.0 0.00 0.46 0.09 53 1009.5
20260505202340 51 282 2.0 8.0 0.00 0.46 0.09 52 1009.4
20260505202233 51 296 4.0 8.0 0.00 0.46 0.09 51 1009.4
20260505202123 51 287 4.0 9.0 0.00 0.46 0.09 52 1009.5
20260505202034 51 300 2.0 9.0 0.00 0.46 0.09 53 1009.5
20260505201926 51 259 2.0 9.0 0.00 0.46 0.09 55 1009.6
20260505201835 51 278 2.0 9.0 0.00 0.46 0.09 53 1009.5
20260505201726 51 267 3.0 9.0 0.00 0.46 0.09 52 1009.6
20260505201637 51 244 4.0 9.0 0.00 0.46 0.09 53 1009.6
20260505201538 51 263 4.0 9.0 0.00 0.46 0.09 52 1009.5
20260505201409 51 263 4.0 9.0 0.00 0.46 0.09 53 1009.6
20260505201301 51 289 3.0 7.0 0.00 0.46 0.09 54 1009.5
20260505201212 51 291 3.0 9.0 0.00 0.46 0.09 55 1009.5
20260505201127 51 287 3.0 9.0 0.00 0.46 0.09 53 1009.5
20260505201037 51 344 3.0 9.0 0.00 0.46 0.09 52 1009.5
20260505200907 51 318 3.0 9.0 0.00 0.46 0.09 52 1009.5
20260505200817 51 346 4.0 9.0 0.00 0.46 0.09 52 1009.5
20260505200708 51 340 4.0 9.0 0.00 0.46 0.09 51 1009.6
20260505200619 51 309 4.0 9.0 0.00 0.46 0.09 53 1009.5
20260505200530 51 340 4.0 9.0 0.00 0.46 0.09 53 1009.6
20260505200419 51 5 5.0 9.0 0.00 0.46 0.09 50 1009.6
20260505200333 51 301 4.0 9.0 0.00 0.46 0.09 51 1009.6
20260505200222 51 307 2.0 9.0 0.00 0.46 0.09 55 1009.5
20260505200107 51 307 3.0 9.0 0.00 0.46 0.09 52 1009.6
20260505195957 51 312 4.0 9.0 0.00 0.46 0.09 49 1009.5
20260505195846 51 303 3.0 9.0 0.00 0.46 0.09 50 1009.5
20260505195734 51 335 3.0 9.0 0.00 0.46 0.09 50 1009.7
20260505195645 51 309 4.0 9.0 0.00 0.46 0.09 53 1009.6
20260505195534 51 281 5.0 9.0 0.00 0.46 0.09 52 1009.6
20260505195446 51 329 5.0 9.0 0.00 0.46 0.09 51 1009.6
20260505195356 51 284 4.0 7.0 0.00 0.46 0.09 53 1009.7
20260505195246 51 323 4.0 6.0 0.00 0.46 0.09 53 1009.7
20260505195157 51 313 4.0 7.0 0.00 0.46 0.09 53 1009.8
20260505195026 51 284 2.0 7.0 0.00 0.46 0.09 53 1009.8
20260505194936 51 237 2.0 7.0 0.00 0.46 0.09 53 1009.8
20260505194810 51 237 3.0 7.0 0.00 0.46 0.09 53 1009.8
20260505194702 51 296 3.0 7.0 0.00 0.46 0.09 53 1009.7
20260505194613 51 310 4.0 7.0 0.00 0.46 0.09 52 1009.8
20260505194536 51 286 3.0 7.0 0.00 0.46 0.09 50 1009.8
20260505194405 51 316 3.0 8.0 0.00 0.46 0.09 54 1009.8
20260505194317 51 315 2.0 9.0 0.00 0.46 0.09 52 1009.7
20260505194227 51 261 2.0 9.0 0.00 0.46 0.09 54 1009.8
20260505194138 51 269 2.0 9.0 0.00 0.46 0.09 52 1009.8
20260505194026 51 283 2.0 9.0 0.00 0.46 0.09 52 1009.7
20260505193936 51 267 2.0 9.0 0.00 0.46 0.09 54 1009.8
20260505193811 51 255 3.0 9.0 0.00 0.46 0.09 52 1009.8
20260505193702 51 290 4.0 9.0 0.00 0.46 0.09 51 1009.8
20260505193613 51 295 5.0 9.0 0.00 0.46 0.09 50 1009.7
20260505193505 51 291 6.0 9.0 0.00 0.46 0.09 50 1009.8
20260505193415 51 302 5.0 8.0 0.00 0.46 0.09 50 1009.8
20260505193327 51 264 3.0 8.0 0.00 0.46 0.09 50 1009.8
20260505193237 51 302 1.0 7.0 0.00 0.46 0.09 50 1009.8
20260505193106 50 304 2.0 7.0 0.00 0.46 0.09 50 1009.8
20260505193028 50 286 3.0 7.0 0.00 0.46 0.09 51 1009.8
20260505192902 50 284 4.0 7.0 0.00 0.46 0.09 51 1009.8
20260505192814 50 295 3.0 7.0 0.00 0.46 0.09 52 1009.9
20260505192704 50 284 3.0 7.0 0.00 0.46 0.09 51 1009.9
20260505192615 50 279 3.0 7.0 0.00 0.46 0.09 52 1009.8
20260505192506 50 273 2.0 7.0 0.00 0.46 0.09 53 1009.9
20260505192417 50 295 3.0 7.0 0.00 0.46 0.09 52 1010.0
20260505192310 50 294 4.0 7.0 0.00 0.46 0.09 51 1009.8
20260505192158 50 272 4.0 7.0 0.00 0.46 0.09 51 1009.9
20260505192111 50 299 4.0 6.0 0.00 0.46 0.09 50 1009.9
20260505192005 50 307 4.0 7.0 0.00 0.46 0.09 50 1009.9
20260505191916 50 306 4.0 7.0 0.00 0.46 0.09 51 1009.9
20260505191826 50 282 3.0 7.0 0.00 0.46 0.09 51 1009.8
20260505191716 50 290 2.0 8.0 0.00 0.46 0.09 51 1009.9
20260505191607 50 296 2.0 8.0 0.00 0.46 0.09 52 1009.9
20260505191527 50 296 2.0 8.0 0.00 0.46 0.09 52 1009.9
20260505191416 50 296 3.0 9.0 0.00 0.46 0.09 53 1009.9
20260505191307 50 276 2.0 9.0 0.00 0.46 0.09 53 1010.0
20260505191159 50 293 3.0 9.0 0.00 0.46 0.09 53 1010.0
20260505191115 50 293 4.0 9.0 0.00 0.46 0.09 50 1010.0
20260505191006 50 281 4.0 9.0 0.00 0.46 0.09 50 1010.0
20260505190917 50 294 3.0 9.0 0.00 0.46 0.09 51 1010.0
20260505190809 50 294 4.0 9.0 0.00 0.46 0.09 50 1010.0
20260505190719 50 298 5.0 9.0 0.00 0.46 0.09 50 1010.0
20260505190609 50 285 4.0 9.0 0.00 0.46 0.09 50 1010.0
20260505190521 50 263 3.0 9.0 0.00 0.46 0.09 51 1010.0
20260505190432 50 286 3.0 9.0 0.00 0.46 0.09 50 1010.0
20260505190304 50 273 4.0 9.0 0.00 0.46 0.09 48 1009.9
20260505190214 50 243 6.0 9.0 0.00 0.46 0.09 49 1010.0
20260505190108 50 277 5.0 9.0 0.00 0.46 0.09 50 1010.0
20260505190031 50 283 4.0 7.0 0.00 0.46 0.09 52 1009.9
20260505185902 50 304 4.0 7.0 0.00 0.46 0.09 52 1009.8
20260505185813 50 311 3.0 6.0 0.00 0.46 0.09 52 1010.0
20260505185705 50 321 3.0 6.0 0.00 0.46 0.09 52 1010.0
20260505185615 50 302 4.0 6.0 0.00 0.46 0.09 52 1010.1
20260505185506 50 304 4.0 6.0 0.00 0.46 0.09 50 1010.0
20260505185417 50 360 3.0 6.0 0.00 0.46 0.09 52 1010.0
20260505185312 50 305 4.0 6.0 0.00 0.46 0.09 50 1009.9
20260505185201 50 300 3.0 7.0 0.00 0.46 0.09 49 1010.0
20260505185113 50 273 3.0 7.0 0.00 0.46 0.09 49 1010.0
20260505185003 50 271 4.0 7.0 0.00 0.46 0.09 48 1010.0
20260505184915 50 294 4.0 7.0 0.00 0.46 0.09 47 1010.0
20260505184806 50 323 4.0 10.0 0.00 0.46 0.09 50 1009.8
20260505184717 50 305 5.0 10.0 0.00 0.46 0.09 48 1009.9
20260505184609 50 317 4.0 10.0 0.00 0.46 0.09 48 1010.0
20260505184531 50 308 4.0 10.0 0.00 0.46 0.09 48 1009.9
20260505184405 50 327 3.0 10.0 0.00 0.46 0.09 48 1009.9
20260505184316 50 306 3.0 10.0 0.00 0.46 0.09 49 1010.0
20260505184209 50 295 4.0 10.0 0.00 0.46 0.09 50 1010.0
20260505184059 50 308 7.0 10.0 0.00 0.46 0.09 48 1010.0
20260505184012 50 307 7.0 10.0 0.00 0.46 0.09 47 1010.0
20260505183922 50 307 4.0 9.0 0.00 0.46 0.09 49 1010.0
20260505183811 50 281 3.0 8.0 0.00 0.46 0.09 50 1010.0
20260505183702 50 288 3.0 8.0 0.00 0.46 0.09 49 1010.0
20260505183612 50 300 3.0 8.0 0.00 0.46 0.09 50 1009.9
20260505183526 50 302 4.0 8.0 0.00 0.46 0.09 50 1009.9
20260505183437 50 288 5.0 8.0 0.00 0.46 0.09 48 1009.9
20260505183330 50 297 6.0 8.0 0.00 0.46 0.09 48 1009.8
20260505183238 50 296 3.0 8.0 0.00 0.46 0.09 52 1009.8
20260505183107 50 294 2.0 8.0 0.00 0.46 0.09 51 1009.8
20260505183030 50 292 3.0 8.0 0.00 0.46 0.09 48 1009.8
20260505182900 51 310 4.0 8.0 0.00 0.46 0.09 49 1009.8
20260505182811 51 294 3.0 8.0 0.00 0.46 0.09 49 1009.8
20260505182702 51 244 4.0 8.0 0.00 0.46 0.09 48 1009.8
20260505182612 51 310 5.0 8.0 0.00 0.46 0.09 48 1009.8
20260505182508 51 295 4.0 8.0 0.00 0.46 0.09 49 1009.7
20260505182418 51 289 4.0 8.0 0.00 0.46 0.09 52 1009.7
20260505182328 51 308 6.0 9.0 0.00 0.46 0.09 51 1009.8
20260505182158 51 313 4.0 9.0 0.00 0.46 0.09 51 1009.8
20260505182109 51 313 3.0 9.0 0.00 0.46 0.09 54 1009.7
20260505182001 51 327 2.0 9.0 0.00 0.46 0.09 54 1009.6
20260505181912 51 252 2.0 9.0 0.00 0.46 0.09 53 1009.7
20260505181802 51 311 3.0 9.0 0.00 0.46 0.09 50 1009.7
20260505181713 51 226 5.0 9.0 0.00 0.46 0.09 49 1009.8
20260505181607 51 269 6.0 9.0 0.00 0.46 0.09 49 1009.8
20260505181530 51 313 5.0 9.0 0.00 0.46 0.09 51 1009.8
20260505181400 51 281 3.0 7.0 0.00 0.46 0.09 51 1009.7
20260505181311 51 302 3.0 7.0 0.00 0.46 0.09 52 1009.7
20260505181222 51 264 4.0 9.0 0.00 0.46 0.09 52 1009.8
20260505181133 50 320 3.0 9.0 0.00 0.46 0.09 53 1009.7
20260505181002 50 305 3.0 9.0 0.00 0.46 0.09 51 1009.7
20260505180912 50 293 4.0 9.0 0.00 0.46 0.09 50 1009.7
20260505180823 50 296 3.0 9.0 0.00 0.46 0.09 49 1009.6
20260505180714 50 307 3.0 11.0 0.00 0.46 0.09 48 1009.6
20260505180628 50 269 3.0 11.0 0.00 0.46 0.09 48 1009.6
20260505180538 50 271 5.0 11.0 0.00 0.46 0.09 49 1009.6
20260505180406 50 288 6.0 11.0 0.00 0.46 0.09 48 1009.6
20260505180319 50 281 5.0 11.0 0.00 0.46 0.09 50 1009.5
20260505180209 50 280 4.0 11.0 0.00 0.46 0.09 50 1009.5
20260505180119 50 280 5.0 11.0 0.00 0.46 0.09 50 1009.5
20260505180041 50 303 7.0 11.0 0.00 0.46 0.09 49 1009.5
20260505175910 51 277 7.0 11.0 0.00 0.46 0.09 49 1009.6
20260505175800 51 284 5.0 10.0 0.00 0.46 0.09 50 1009.5
20260505175711 51 314 4.0 12.0 0.00 0.46 0.09 50 1009.4
20260505175607 51 290 5.0 12.0 0.00 0.46 0.09 49 1009.4
20260505175516 51 304 5.0 12.0 0.00 0.46 0.09 48 1009.3
20260505175408 51 309 4.0 12.0 0.00 0.46 0.09 51 1009.2
20260505175318 51 294 5.0 12.0 0.00 0.46 0.09 51 1009.2
20260505175210 51 279 6.0 12.0 0.00 0.46 0.09 51 1009.3
20260505175121 51 273 6.0 12.0 0.00 0.46 0.09 51 1009.2
20260505175032 51 262 6.0 12.0 0.00 0.46 0.09 49 1009.2
20260505174943 51 301 6.0 12.0 0.00 0.46 0.09 51 1009.1
20260505174833 51 309 6.0 12.0 0.00 0.46 0.09 51 1009.2
20260505174743 51 309 3.0 10.0 0.00 0.46 0.09 51 1009.4
20260505174637 51 313 3.0 10.0 0.00 0.46 0.09 52 1009.4
20260505174559 51 288 4.0 10.0 0.00 0.46 0.09 51 1009.3
20260505174407 51 295 7.0 10.0 0.00 0.46 0.09 49 1009.3
20260505174317 51 269 7.0 10.0 0.00 0.46 0.09 50 1009.3
20260505174208 51 296 5.0 10.0 0.00 0.46 0.09 52 1009.3
20260505174059 51 293 6.0 10.0 0.00 0.46 0.09 52 1009.4
20260505174009 51 318 6.0 10.0 0.00 0.46 0.09 53 1009.4
20260505173920 51 304 4.0 10.0 0.00 0.46 0.09 55 1009.4
20260505173810 51 304 3.0 10.0 0.00 0.46 0.09 55 1009.4
20260505173705 51 342 3.0 10.0 0.00 0.46 0.09 56 1009.3
20260505173615 51 298 4.0 10.0 0.00 0.46 0.09 54 1009.3
20260505173525 51 344 4.0 10.0 0.00 0.46 0.09 53 1009.4
20260505173437 51 328 6.0 10.0 0.00 0.46 0.09 52 1009.4
20260505173308 51 277 6.0 10.0 0.00 0.46 0.09 51 1009.3
20260505173217 51 296 5.0 9.0 0.00 0.46 0.09 53 1009.3
20260505173109 51 317 4.0 9.0 0.00 0.46 0.09 53 1009.4
20260505173030 51 303 4.0 9.0 0.00 0.46 0.09 53 1009.3
20260505172901 51 296 6.0 9.0 0.00 0.46 0.09 51 1009.2
20260505172811 51 302 7.0 9.0 0.00 0.46 0.09 52 1009.3
20260505172725 51 317 6.0 10.0 0.00 0.46 0.09 53 1009.2
20260505172636 51 313 4.0 10.0 0.00 0.46 0.09 56 1009.1
20260505172506 51 304 3.0 11.0 0.00 0.46 0.09 57 1009.2
20260505172416 51 302 4.0 11.0 0.00 0.46 0.09 57 1009.1
20260505172306 51 323 4.0 11.0 0.00 0.46 0.09 54 1009.2
20260505172216 51 303 5.0 11.0 0.00 0.46 0.09 54 1009.1
20260505172107 51 317 7.0 11.0 0.00 0.46 0.09 55 1009.1
20260505172016 51 329 7.0 11.0 0.00 0.46 0.09 54 1009.1
20260505171908 51 295 7.0 11.0 0.00 0.46 0.09 53 1009.1
20260505171823 51 309 7.0 11.0 0.00 0.46 0.09 53 1009.1
20260505171733 51 310 6.0 11.0 0.00 0.46 0.09 59 1009.1
20260505171644 51 291 4.0 10.0 0.00 0.46 0.09 59 1009.1
20260505171607 51 346 3.0 10.0 0.00 0.46 0.09 59 1009.1
20260505171435 51 321 3.0 10.0 0.00 0.46 0.09 60 1009.2
20260505171324 51 321 3.0 10.0 0.00 0.46 0.09 58 1009.2
20260505171235 51 294 2.0 10.0 0.00 0.46 0.09 57 1009.2
20260505171104 51 319 4.0 10.0 0.00 0.46 0.09 57 1009.2
20260505171015 51 301 6.0 10.0 0.00 0.46 0.09 58 1009.3
20260505170925 51 286 7.0 10.0 0.00 0.46 0.09 57 1009.2
20260505170835 51 305 7.0 10.0 0.00 0.46 0.09 59 1009.2
20260505170709 51 296 7.0 10.0 0.00 0.46 0.09 62 1009.1
20260505170620 51 331 5.0 10.0 0.00 0.46 0.09 62 1009.1
20260505170530 51 14 4.0 10.0 0.00 0.46 0.09 60 1009.2
20260505170440 51 80 3.0 10.0 0.00 0.46 0.09 62 1009.2
20260505170352 51 337 5.0 10.0 0.00 0.46 0.09 62 1009.1
20260505170239 51 330 6.0 10.0 0.00 0.46 0.09 60 1009.2
20260505170148 51 288 6.0 11.0 0.00 0.46 0.09 60 1009.2
20260505170110 51 333 6.0 11.0 0.00 0.46 0.09 63 1009.1
20260505165938 51 17 3.0 11.0 0.00 0.46 0.09 62 1009.1
20260505165829 51 302 2.0 15.0 0.00 0.46 0.09 62 1009.1
20260505165718 51 251 3.0 15.0 0.00 0.46 0.09 61 1009.1
20260505165608 51 281 4.0 15.0 0.00 0.46 0.09 63 1009.1
20260505165503 51 302 5.0 15.0 0.00 0.46 0.09 63 1009.1
20260505165414 51 251 5.0 15.0 0.00 0.46 0.09 61 1009.1
20260505165306 51 275 6.0 15.0 0.00 0.46 0.09 62 1009.1
20260505165216 50 280 7.0 15.0 0.00 0.46 0.09 65 1009.1
20260505165106 50 304 8.0 15.0 0.00 0.46 0.09 62 1009.0
20260505165017 50 314 8.0 15.0 0.00 0.46 0.09 62 1009.1
20260505164927 50 288 6.0 10.0 0.00 0.46 0.09 64 1009.1
20260505164817 50 298 4.0 10.0 0.00 0.46 0.09 63 1009.1
20260505164727 50 301 3.0 10.0 0.00 0.46 0.09 64 1009.1
20260505164600 50 309 5.0 10.0 0.00 0.46 0.09 63 1009.1
20260505164522 50 313 6.0 10.0 0.00 0.46 0.09 62 1009.1
20260505164413 50 314 6.0 10.0 0.00 0.46 0.09 62 1009.0
20260505164324 50 316 6.0 10.0 0.00 0.46 0.09 62 1009.1
20260505164235 50 246 5.0 9.0 0.00 0.46 0.09 62 1009.0
20260505164104 50 291 4.0 9.0 0.00 0.46 0.09 64 1009.0
20260505164016 50 317 4.0 9.0 0.00 0.46 0.09 65 1008.9
20260505163906 49 315 5.0 10.0 0.00 0.46 0.09 65 1009.0
20260505163817 50 301 6.0 10.0 0.00 0.46 0.09 63 1009.0
20260505163709 50 294 6.0 10.0 0.00 0.46 0.09 66 1008.9
20260505163603 50 324 6.0 10.0 0.00 0.46 0.09 65 1008.9
20260505163514 49 273 5.0 10.0 0.00 0.46 0.09 67 1008.8
20260505163405 49 325 5.0 10.0 0.00 0.46 0.09 66 1008.9
20260505163319 49 299 5.0 10.0 0.00 0.46 0.09 65 1008.9
20260505163227 49 339 6.0 10.0 0.00 0.46 0.09 66 1008.9
20260505163139 49 335 6.0 10.0 0.00 0.46 0.09 69 1008.9
20260505163039 49 326 5.0 11.0 0.00 0.46 0.09 69 1008.9
20260505162909 49 355 4.0 11.0 0.00 0.46 0.09 71 1009.0
20260505162821 49 347 4.0 11.0 0.00 0.46 0.09 71 1008.9
20260505162712 49 10 4.0 11.0 0.00 0.46 0.09 71 1009.0
20260505162609 49 331 4.0 11.0 0.00 0.46 0.09 68 1008.9
20260505162459 49 332 6.0 11.0 0.00 0.46 0.09 68 1008.8
20260505162411 49 323 7.0 11.0 0.00 0.46 0.09 67 1008.8
20260505162321 49 283 7.0 11.0 0.00 0.46 0.09 67 1008.8
20260505162234 49 285 6.0 11.0 0.00 0.46 0.09 68 1008.8
20260505162125 49 317 5.0 9.0 0.00 0.46 0.09 68 1008.7
20260505162035 49 314 4.0 12.0 0.00 0.46 0.09 71 1008.7
20260505161925 49 296 4.0 12.0 0.00 0.46 0.09 71 1008.7
20260505161835 49 340 5.0 12.0 0.00 0.46 0.09 71 1008.8
20260505161705 49 290 4.0 12.0 0.00 0.46 0.09 71 1008.7
20260505161601 49 355 4.0 12.0 0.00 0.46 0.09 71 1008.7
20260505161523 49 324 5.0 12.0 0.00 0.46 0.09 72 1008.7
20260505161411 49 295 6.0 12.0 0.00 0.46 0.09 68 1008.7
20260505161302 49 315 6.0 12.0 0.00 0.46 0.09 70 1008.7
20260505161212 49 9 5.0 10.0 0.00 0.46 0.09 73 1008.7
20260505161102 49 334 5.0 9.0 0.00 0.46 0.09 73 1008.8
20260505161013 49 317 5.0 11.0 0.00 0.46 0.09 73 1008.8
20260505160904 48 275 4.0 11.0 0.00 0.46 0.09 72 1008.8
20260505160815 48 289 4.0 11.0 0.00 0.46 0.09 72 1008.8
20260505160730 48 296 5.0 11.0 0.00 0.46 0.09 70 1008.7
20260505160601 48 317 5.0 11.0 0.00 0.46 0.09 69 1008.7
20260505160510 48 321 4.0 11.0 0.00 0.46 0.09 71 1008.7
20260505160401 48 308 4.0 11.0 0.00 0.46 0.09 71 1008.7
20260505160314 48 323 6.0 11.0 0.00 0.46 0.09 71 1008.7
20260505160203 48 295 7.0 11.0 0.00 0.46 0.09 71 1008.6
20260505160115 48 309 6.0 10.0 0.00 0.46 0.09 70 1008.6
20260505153308 45 276 2.0 5.0 0.01 0.46 0.09 85 1009.1
20260505153216 45 276 2.0 5.0 0.01 0.46 0.09 85 1009.2
20260505153118 45 289 2.0 4.0 0.01 0.46 0.09 85 1009.2
20260505153019 45 317 1.0 4.0 0.01 0.46 0.09 84 1009.2
20260505152914 45 317 1.0 4.0 0.01 0.46 0.09 83 1009.0
20260505152805 45 317 1.0 4.0 0.01 0.46 0.09 83 1009.0
20260505152717 45 317 2.0 4.0 0.01 0.46 0.09 83 1009.0
20260505152627 45 317 2.0 4.0 0.02 0.46 0.09 84 1009.1
20260505152538 45 317 1.0 5.0 0.02 0.46 0.09 85 1009.1
20260505152409 45 317 1.0 8.0 0.02 0.46 0.09 85 1009.1
20260505152319 44 317 1.0 8.0 0.02 0.46 0.09 84 1009.1
20260505152229 44 317 2.0 8.0 0.02 0.46 0.09 84 1009.2
20260505152101 44 317 3.0 8.0 0.02 0.46 0.09 84 1009.3
20260505152010 44 296 2.0 8.0 0.02 0.46 0.09 85 1009.3
20260505151904 44 326 2.0 8.0 0.02 0.46 0.09 85 1009.2
20260505151814 44 326 3.0 8.0 0.02 0.46 0.09 85 1009.1
20260505151724 44 326 4.0 8.0 0.02 0.46 0.09 85 1009.0
20260505151634 44 285 3.0 8.0 0.02 0.46 0.09 85 1009.0
20260505151535 44 311 2.0 6.0 0.02 0.46 0.09 85 1009.0
20260505151406 44 323 2.0 4.0 0.02 0.46 0.09 86 1008.8
20260505151317 44 323 1.0 4.0 0.02 0.46 0.09 86 1008.7
20260505151208 44 323 0.0 4.0 0.02 0.46 0.09 86 1008.8
20260505151100 44 323 1.0 4.0 0.02 0.46 0.09 86 1008.8
20260505151014 44 323 2.0 4.0 0.02 0.46 0.09 86 1008.9
20260505150904 44 323 3.0 4.0 0.02 0.46 0.09 86 1009.1
20260505150814 44 339 2.0 4.0 0.03 0.46 0.09 86 1009.0
20260505150705 44 321 1.0 4.0 0.03 0.46 0.09 87 1008.9
20260505150615 44 321 2.0 4.0 0.03 0.46 0.09 87 1009.0
20260505150526 44 321 1.0 4.0 0.03 0.46 0.09 87 1008.9
20260505150415 44 321 1.0 4.0 0.03 0.46 0.09 87 1009.0
20260505150328 44 321 2.0 4.0 0.03 0.46 0.09 87 1009.0
20260505150216 44 321 2.0 4.0 0.03 0.46 0.09 87 1009.1
20260505150107 44 321 2.0 4.0 0.03 0.46 0.09 87 1009.2
20260505140600 43 290 1.0 4.0 0.06 0.43 0.06 88 1009.8
20260505140512 43 290 0.0 4.0 0.06 0.43 0.06 88 1009.7
20260505140426 43 290 0.0 5.0 0.06 0.43 0.06 88 1009.6
20260505140317 43 290 0.0 5.0 0.06 0.43 0.06 88 1009.4
20260505140206 43 290 1.0 5.0 0.06 0.43 0.06 88 1009.5
20260505140116 43 290 1.0 5.0 0.06 0.43 0.06 88 1009.4
20260505130230 46 317 6.0 13.0 0.00 0.37 0.00 77 1008.5
20260505130139 46 348 5.0 13.0 0.00 0.37 0.00 77 1008.5
20260505125007 47 344 8.0 14.0 0.00 0.37 0.00 73 1008.3
20260505124922 47 336 8.0 14.0 0.00 0.37 0.00 74 1008.4
20260505124811 47 317 8.0 14.0 0.00 0.37 0.00 74 1008.3
20260505124702 47 342 7.0 14.0 0.00 0.37 0.00 75 1008.3
20260505124612 47 338 6.0 14.0 0.00 0.37 0.00 75 1008.3
20260505124534 48 317 7.0 14.0 0.00 0.37 0.00 75 1008.3
20260505124425 48 332 8.0 14.0 0.00 0.37 0.00 75 1008.2
20260505124315 48 355 9.0 14.0 0.00 0.37 0.00 75 1008.2
20260505124206 48 279 9.0 14.0 0.00 0.37 0.00 76 1008.2
20260505124115 48 319 6.0 11.0 0.00 0.37 0.00 76 1008.2
20260505124006 48 309 5.0 10.0 0.00 0.37 0.00 77 1008.0
20260505123922 48 350 5.0 10.0 0.00 0.37 0.00 77 1008.0
20260505123833 48 305 4.0 10.0 0.00 0.37 0.00 77 1007.9
20260505123703 48 338 5.0 10.0 0.00 0.37 0.00 77 1008.0
20260505123614 48 313 5.0 10.0 0.00 0.37 0.00 77 1007.9
20260505123505 48 294 4.0 10.0 0.00 0.37 0.00 78 1007.8
20260505123416 48 321 4.0 10.0 0.00 0.37 0.00 77 1007.8
20260505123309 48 313 5.0 10.0 0.00 0.37 0.00 77 1007.8
20260505123159 48 303 6.0 10.0 0.00 0.37 0.00 78 1007.7
20260505123109 48 302 6.0 10.0 0.00 0.37 0.00 78 1007.7
20260505123045 48 322 5.0 10.0 0.00 0.37 0.00 78 1007.7
20260505122913 48 355 4.0 10.0 0.00 0.37 0.00 78 1007.6
20260505122805 48 330 5.0 10.0 0.00 0.37 0.00 78 1007.5
20260505122715 48 317 6.0 10.0 0.00 0.37 0.00 78 1007.6
20260505122605 48 320 6.0 10.0 0.00 0.37 0.00 79 1007.4
20260505122516 48 310 4.0 9.0 0.00 0.37 0.00 79 1007.5
20260505122426 48 355 4.0 9.0 0.00 0.37 0.00 79 1007.5
20260505122338 48 321 5.0 9.0 0.00 0.37 0.00 79 1007.4
20260505122227 47 339 5.0 9.0 0.00 0.37 0.00 79 1007.4
20260505122117 47 333 5.0 9.0 0.00 0.37 0.00 79 1007.4
20260505122011 48 294 5.0 9.0 0.00 0.37 0.00 80 1007.4
20260505121901 47 319 4.0 9.0 0.00 0.37 0.00 80 1007.4
20260505121812 47 342 3.0 9.0 0.00 0.37 0.00 80 1007.4
20260505121702 47 315 3.0 11.0 0.00 0.37 0.00 80 1007.4
20260505121613 48 313 4.0 11.0 0.00 0.37 0.00 80 1007.4
20260505121535 48 307 4.0 11.0 0.00 0.37 0.00 81 1007.5
20260505121425 47 350 4.0 11.0 0.00 0.37 0.00 80 1007.6
20260505121336 47 315 4.0 11.0 0.00 0.37 0.00 81 1007.5
20260505121204 48 301 4.0 11.0 0.00 0.37 0.00 81 1007.5
20260505121059 48 310 4.0 11.0 0.00 0.37 0.00 81 1007.6
20260505121009 48 315 6.0 11.0 0.00 0.37 0.00 81 1007.5
20260505120900 47 331 5.0 11.0 0.00 0.37 0.00 81 1007.5
20260505120810 47 273 4.0 10.0 0.00 0.37 0.00 81 1007.7
20260505120722 47 335 6.0 10.0 0.00 0.37 0.00 81 1007.6
20260505120611 47 313 6.0 10.0 0.00 0.37 0.00 81 1007.5
20260505120502 47 313 6.0 10.0 0.00 0.37 0.00 81 1007.4
20260505120412 47 327 6.0 10.0 0.00 0.37 0.00 81 1007.3
20260505120305 47 348 6.0 10.0 0.00 0.37 0.00 81 1007.1
20260505120214 47 325 6.0 10.0 0.00 0.37 0.00 81 1007.1
20260505120110 47 300 5.0 10.0 0.00 0.37 0.00 82 1007.1
20260505120032 47 330 4.0 10.0 0.00 0.37 0.00 82 1007.0
20260505115902 47 315 4.0 10.0 0.00 0.37 0.00 82 1006.8
20260505115813 47 327 5.0 10.0 0.00 0.37 0.00 82 1006.9
20260505115704 47 9 4.0 10.0 0.00 0.37 0.00 82 1006.9
20260505115615 47 290 5.0 10.0 0.00 0.37 0.00 82 1007.0
20260505115504 47 331 7.0 12.0 0.00 0.37 0.00 82 1007.1
20260505115415 47 341 7.0 12.0 0.00 0.37 0.00 82 1007.1
20260505115325 47 309 4.0 12.0 0.00 0.37 0.00 82 1007.1
20260505115218 47 296 4.0 12.0 0.00 0.37 0.00 82 1007.1
20260505115107 47 317 5.0 12.0 0.00 0.37 0.00 81 1007.0
20260505115017 47 287 6.0 12.0 0.00 0.37 0.00 81 1007.0
20260505114927 47 317 8.0 12.0 0.00 0.37 0.00 81 1007.0
20260505114816 47 292 8.0 12.0 0.00 0.37 0.00 81 1006.9
20260505114727 47 340 7.0 11.0 0.00 0.37 0.00 81 1006.9
20260505114616 47 309 6.0 11.0 0.00 0.37 0.00 81 1006.9
20260505114537 47 294 6.0 11.0 0.00 0.37 0.00 81 1006.8
20260505114427 47 332 6.0 11.0 0.00 0.37 0.00 81 1006.8
20260505114338 47 338 7.0 11.0 0.00 0.37 0.00 80 1006.7
20260505114227 47 298 7.0 11.0 0.00 0.37 0.00 80 1006.5
20260505114100 47 300 5.0 11.0 0.00 0.37 0.00 81 1006.5
20260505114010 47 27 6.0 11.0 0.00 0.37 0.00 81 1006.6
20260505113902 47 320 6.0 11.0 0.00 0.37 0.00 81 1006.5
20260505113812 47 333 6.0 11.0 0.00 0.37 0.00 81 1006.5
20260505113703 47 316 6.0 10.0 0.00 0.37 0.00 81 1006.5
20260505113615 47 320 6.0 10.0 0.00 0.37 0.00 81 1006.4
20260505113506 47 304 5.0 10.0 0.00 0.37 0.00 81 1006.4
20260505113418 47 278 5.0 10.0 0.00 0.37 0.00 80 1006.4
20260505113310 47 301 5.0 10.0 0.00 0.37 0.00 80 1006.3
20260505113222 47 312 5.0 10.0 0.00 0.37 0.00 80 1006.2
20260505113112 47 302 6.0 10.0 0.00 0.37 0.00 80 1006.2
20260505113033 48 296 5.0 9.0 0.00 0.37 0.00 80 1006.2
20260505112904 48 287 5.0 10.0 0.00 0.37 0.00 80 1006.1
20260505112815 48 304 6.0 10.0 0.00 0.37 0.00 80 1006.1
20260505112706 48 292 6.0 10.0 0.00 0.37 0.00 79 1006.0
20260505112615 48 290 5.0 10.0 0.00 0.37 0.00 79 1005.9
20260505112507 48 298 4.0 10.0 0.00 0.37 0.00 79 1005.7
20260505112418 48 310 4.0 10.0 0.00 0.37 0.00 79 1005.8
20260505112329 48 295 5.0 10.0 0.00 0.37 0.00 79 1005.8
20260505112203 48 284 6.0 10.0 0.00 0.37 0.00 79 1005.7
20260505112113 48 321 6.0 10.0 0.00 0.37 0.00 79 1005.6
20260505112005 48 304 4.0 8.0 0.00 0.37 0.00 79 1005.5
20260505111917 48 323 3.0 8.0 0.00 0.37 0.00 79 1005.5
20260505111829 48 269 2.0 8.0 0.00 0.37 0.00 78 1005.4
20260505111739 48 319 3.0 8.0 0.00 0.37 0.00 78 1005.3
20260505111608 48 320 4.0 8.0 0.00 0.37 0.00 78 1005.3
20260505111529 48 300 3.0 8.0 0.00 0.37 0.00 78 1005.4
20260505111400 48 334 3.0 8.0 0.00 0.37 0.00 78 1005.3
20260505111314 48 288 4.0 8.0 0.00 0.37 0.00 78 1005.2
20260505111203 48 325 5.0 8.0 0.00 0.37 0.00 78 1005.3
20260505111114 48 306 4.0 8.0 0.00 0.37 0.00 78 1005.4
20260505111026 48 328 4.0 8.0 0.00 0.37 0.00 78 1005.4
20260505110917 48 321 3.0 8.0 0.00 0.37 0.00 78 1005.4
20260505110808 48 313 3.0 8.0 0.00 0.37 0.00 78 1005.6
20260505110719 48 304 3.0 8.0 0.00 0.37 0.00 78 1005.5
20260505110630 48 311 3.0 8.0 0.00 0.37 0.00 78 1005.7
20260505110500 48 310 3.0 8.0 0.00 0.37 0.00 77 1005.6
20260505110409 48 326 4.0 8.0 0.00 0.37 0.00 77 1005.7
20260505110306 48 315 5.0 8.0 0.00 0.37 0.00 77 1005.7
20260505110215 48 306 5.0 8.0 0.00 0.37 0.00 77 1005.7
20260505110106 48 317 4.0 8.0 0.00 0.37 0.00 77 1005.8
20260505102215 50 284 4.0 10.0 0.00 0.37 0.00 71 1006.0
20260505102127 50 308 5.0 11.0 0.00 0.37 0.00 71 1006.0
20260505102037 50 309 4.0 11.0 0.00 0.37 0.00 71 1006.1
20260505101927 50 302 3.0 11.0 0.00 0.37 0.00 71 1006.1
20260505101816 50 294 4.0 11.0 0.00 0.37 0.00 71 1006.1
20260505101707 50 263 5.0 11.0 0.00 0.37 0.00 70 1006.1
20260505101617 50 291 6.0 11.0 0.00 0.37 0.00 70 1006.1
20260505101538 50 265 7.0 11.0 0.00 0.37 0.00 70 1006.1
20260505101432 50 277 7.0 11.0 0.00 0.37 0.00 69 1006.1
20260505101301 50 302 7.0 11.0 0.00 0.37 0.00 69 1006.1
20260505101212 50 318 6.0 11.0 0.00 0.37 0.00 69 1006.0
20260505101122 50 297 7.0 11.0 0.00 0.37 0.00 69 1005.8
20260505101032 50 306 8.0 11.0 0.00 0.37 0.00 69 1005.8
20260505100900 51 277 8.0 11.0 0.00 0.37 0.00 69 1005.9
20260505100811 51 302 6.0 10.0 0.00 0.37 0.00 68 1005.9
20260505100702 51 290 5.0 10.0 0.00 0.37 0.00 68 1005.6
20260505100613 51 292 5.0 10.0 0.00 0.37 0.00 68 1005.4
20260505100508 51 306 6.0 10.0 0.00 0.37 0.00 68 1005.2
20260505100400 51 286 5.0 10.0 0.00 0.37 0.00 68 1005.3
20260505100311 51 280 4.0 9.0 0.00 0.37 0.00 68 1005.2
20260505100200 51 330 5.0 12.0 0.00 0.37 0.00 67 1005.3
20260505100109 51 306 6.0 12.0 0.00 0.37 0.00 67 1005.4
20260505100031 51 306 6.0 12.0 0.00 0.37 0.00 67 1005.4
20260505095901 51 297 3.0 12.0 0.00 0.37 0.00 67 1005.3
20260505095812 51 315 3.0 12.0 0.00 0.37 0.00 66 1005.2
20260505095704 51 351 3.0 12.0 0.00 0.37 0.00 66 1005.1
20260505095559 51 295 4.0 12.0 0.00 0.37 0.00 66 1005.2
20260505095509 51 347 6.0 12.0 0.00 0.37 0.00 66 1005.0
20260505095400 51 337 7.0 14.0 0.00 0.37 0.00 66 1005.2
20260505095310 51 289 6.0 14.0 0.00 0.37 0.00 66 1005.5
20260505095221 51 294 8.0 14.0 0.00 0.37 0.00 65 1005.6
20260505095111 52 275 7.0 14.0 0.00 0.37 0.00 66 1005.5
20260505095021 52 313 7.0 14.0 0.00 0.37 0.00 66 1005.6
20260505094911 52 338 7.0 14.0 0.00 0.37 0.00 66 1005.5
20260505094821 52 315 7.0 14.0 0.00 0.37 0.00 65 1005.5
20260505094732 52 323 8.0 14.0 0.00 0.37 0.00 65 1005.5
20260505094607 52 355 7.0 14.0 0.00 0.37 0.00 65 1005.5
20260505094528 52 294 5.0 13.0 0.00 0.37 0.00 66 1005.5
20260505094359 52 293 4.0 10.0 0.00 0.37 0.00 66 1005.3
20260505094308 52 295 4.0 10.0 0.00 0.37 0.00 66 1005.2
20260505094200 52 300 4.0 10.0 0.00 0.37 0.00 66 1005.1
20260505094111 52 314 4.0 10.0 0.00 0.37 0.00 66 1005.0
20260505094002 52 307 5.0 10.0 0.00 0.37 0.00 66 1005.1
20260505093911 52 294 6.0 10.0 0.00 0.37 0.00 66 1005.1
20260505093803 52 311 6.0 10.0 0.00 0.37 0.00 65 1005.0
20260505093717 52 297 5.0 10.0 0.00 0.37 0.00 65 1004.9
20260505093608 52 304 3.0 8.0 0.00 0.37 0.00 66 1004.9
20260505093459 52 300 4.0 8.0 0.00 0.37 0.00 65 1004.9
20260505093409 52 324 4.0 8.0 0.00 0.37 0.00 65 1004.8
20260505093302 52 309 4.0 9.0 0.00 0.37 0.00 65 1004.8
20260505093211 52 311 4.0 9.0 0.00 0.37 0.00 65 1004.9
20260505093101 53 293 4.0 9.0 0.00 0.37 0.00 66 1004.9
20260505093022 53 331 4.0 10.0 0.00 0.37 0.00 66 1005.1
20260505092913 53 291 4.0 10.0 0.00 0.37 0.00 66 1005.1
20260505092809 53 313 5.0 10.0 0.00 0.37 0.00 65 1005.1
20260505092718 53 302 5.0 10.0 0.00 0.37 0.00 65 1005.2
20260505092609 53 299 6.0 10.0 0.00 0.37 0.00 65 1005.0
20260505092459 53 313 6.0 10.0 0.00 0.37 0.00 64 1005.0
20260505092410 53 319 6.0 10.0 0.00 0.37 0.00 66 1005.0
20260505092321 53 304 6.0 10.0 0.00 0.37 0.00 65 1005.0
20260505092210 53 319 6.0 10.0 0.00 0.37 0.00 66 1005.0
20260505092100 53 296 6.0 8.0 0.00 0.37 0.00 66 1005.0
20260505092011 53 286 4.0 8.0 0.00 0.37 0.00 66 1004.9
20260505091906 53 290 3.0 8.0 0.00 0.37 0.00 66 1004.8
20260505091817 53 279 3.0 8.0 0.00 0.37 0.00 66 1004.7
20260505091707 53 297 3.0 8.0 0.00 0.37 0.00 66 1004.6
20260505091617 53 319 3.0 8.0 0.00 0.37 0.00 65 1004.5
20260505091538 53 302 4.0 8.0 0.00 0.37 0.00 65 1004.4
20260505091407 53 317 4.0 8.0 0.00 0.37 0.00 65 1004.2
20260505091318 53 316 4.0 6.0 0.00 0.37 0.00 66 1004.2
20260505091209 53 325 4.0 6.0 0.00 0.37 0.00 65 1004.1
20260505091104 53 296 4.0 7.0 0.00 0.37 0.00 65 1004.1
20260505091015 53 337 4.0 7.0 0.00 0.37 0.00 65 1004.2
20260505090905 53 298 4.0 7.0 0.00 0.37 0.00 65 1004.2
20260505090815 53 315 4.0 7.0 0.00 0.37 0.00 65 1004.2
20260505090706 54 312 3.0 6.0 0.00 0.37 0.00 65 1004.2
20260505090616 54 314 4.0 6.0 0.00 0.37 0.00 64 1004.2
20260505090527 54 305 4.0 9.0 0.00 0.37 0.00 64 1004.1
20260505090418 54 315 3.0 9.0 0.00 0.37 0.00 64 1004.1
20260505090310 54 313 4.0 9.0 0.00 0.37 0.00 64 1004.0
20260505090202 54 343 3.0 9.0 0.00 0.37 0.00 64 1003.9
20260505090113 54 355 2.0 9.0 0.00 0.37 0.00 65 1003.9
20260505090035 54 342 3.0 9.0 0.00 0.37 0.00 65 1004.0